[[{"header":{"parameterUnit":"m.s-1","parameterCategory":1,"la1":30.2991,"la2":30.254,"lo1":-89.0895,"lo2":-89.0444,"dy":0.0017,"dx":0.0017,"nx":28,"ny":28,"refTime":"2026-01-30T03:00:00:Z","depth":0,"parameterNumber":2,"parameterNumberName":"U-component_of_WINDS"},"data":[0,0,0,0,0,0,0,0,0,0,0,0,0,0,0,0,0,0,0,0,0,0,0,0,0,0,0,0,0,0,0,0,0,0,0,0,0,0,0,0,0,0,0,0,0,0,0,0,0,0,0,0,0,0,0,0,0,0,1.3375,1.3375,0,1.3404,1.3405,1.3405,1.3403,1.3403,1.3402,1.3402,1.3434,1.3435,1.3436,0,0,0,0,0,0,0,0,0,0,0,0,0,1.3321,1.3322,1.3375,1.3375,1.3376,1.3404,1.3405,1.3405,1.3403,1.3403,1.3402,1.3402,1.3434,1.3435,1.3436,0,0,0,0,0,0,0,0,0,0,0,0,0,1.3347,1.3322,1.3375,1.3378,1.3379,1.3404,1.3405,1.3405,1.3403,1.3403,1.3402,1.3402,1.3433,1.3435,1.3437,1.3461,0,0,1.3442,1.3443,0,0,0,0,0,0,0,0,1.3345,1.3349,1.3377,1.3378,1.3379,1.3399,1.3397,1.3424,1.3404,1.3394,1.3402,1.3401,1.3423,1.3426,1.3433,1.3463,1.3464,1.3443,1.3444,1.3445,1.3445,0,0,0,0,0,0,0,1.3344,1.3348,1.3387,1.3378,1.3379,1.3379,1.3382,1.3402,1.3412,1.3395,1.3395,1.3398,1.3423,1.3431,1.3433,1.3464,1.3443,1.3444,1.3445,1.3446,1.3519,1.3519,0,0,0,0,0,0,1.3341,1.3346,1.3386,1.3387,1.336,1.3381,1.3384,1.3393,1.3412,1.3414,1.3399,1.3398,1.3428,1.3431,1.3435,1.3466,1.3445,1.3446,1.3447,1.3518,1.3519,1.352,0,0,0,0,0,0,1.334,1.3344,1.3384,1.3367,1.3372,1.3382,1.3393,1.3394,1.3402,1.3415,1.3417,1.3404,1.3428,1.3432,1.3455,1.3467,1.3447,1.3449,1.3517,1.3518,1.3519,1.3527,0,0,0,0,0,0,1.3338,1.3344,1.3352,1.3367,1.3373,1.3403,1.3394,1.3395,1.3405,1.3404,1.342,1.3423,1.3427,1.3452,1.3457,1.3469,1.345,1.3516,1.3517,1.3519,1.3526,1.3528,1.3531,0,0,0,0,0,1.3336,1.3353,1.3352,1.3357,1.3383,1.3404,1.3407,1.3412,1.3406,1.3415,1.3424,1.3422,1.3465,1.3455,1.346,1.3472,1.3515,1.3517,1.3519,1.3525,1.3528,1.353,0,0,0,0,0,0,1.3339,1.3355,1.3354,1.3377,1.3389,1.3403,1.3415,1.3415,1.3429,1.3428,1.3434,1.3438,1.3462,1.347,1.3458,1.3499,1.3489,1.3492,1.3492,1.3495,1.3498,1.3495,1.3452,0,0,0,0,0,1.3343,1.3357,1.337,1.3389,1.3395,1.3404,1.3413,1.3416,1.3429,1.3434,1.3444,1.3458,1.3475,1.3486,1.3502,1.3527,1.3532,1.3539,1.3541,1.3543,1.3546,1.3562,1.3566,1.3526,1.3526,1.3526,0,0,1.3349,1.336,1.3368,1.339,1.3399,1.3415,1.3408,1.3425,1.3437,1.3437,1.3459,1.3468,1.3484,1.3509,1.352,1.3516,1.3558,1.3546,1.3547,1.3548,1.3564,1.3568,1.3571,1.3527,1.3527,1.3526,0,0,1.337,1.3379,1.3396,1.3406,1.3421,1.3428,1.3432,1.3447,1.3452,1.3475,1.3476,1.3492,1.352,1.3531,1.3541,1.3569,1.3569,1.3575,1.3587,1.3602,1.3606,1.3608,1.362,1.3623,1.3577,1.3577,1.3577,0,1.3376,1.3399,1.3404,1.3422,1.3432,1.3433,1.3451,1.3461,1.3481,1.3488,1.3484,1.352,1.3531,1.356,1.3567,1.3574,1.3581,1.3572,1.3605,1.3608,1.361,1.3621,1.3625,1.3578,1.3578,1.3577,1.3577,0,1.3407,1.3424,1.3436,1.3455,1.3467,1.3484,1.3493,1.3505,1.3508,1.3515,1.3539,1.3553,1.3572,1.3579,1.3582,1.3609,1.3606,1.3603,1.3594,1.3615,1.3625,1.3629,1.3578,1.3578,1.3578,1.3578,0,0,1.3429,1.3452,1.3456,1.3466,1.3484,1.3497,1.3516,1.3535,1.3545,1.356,1.3577,1.3602,1.36,1.3611,1.3615,1.3629,1.3652,1.3624,1.3625,1.363,1.3685,1.3687,1.3692,1.3653,1.3654,1.3654,1.3684,0,1.3451,1.3483,1.349,1.3518,1.3534,1.3537,1.3554,1.3568,1.3576,1.3592,1.3602,1.362,1.3615,1.3622,1.3636,1.3646,1.3664,1.3644,1.367,1.367,1.3665,1.3697,1.3699,1.3726,1.3688,1.3688,1.3689,0,1.3481,1.3497,1.3527,1.3544,1.3552,1.3566,1.3585,1.36,1.3617,1.3622,1.3636,1.364,1.3661,1.3652,1.3683,1.367,1.3681,1.3688,1.3689,1.3691,1.368,1.37,1.3734,1.3739,1.3695,1.3695,1.3694,0,1.3494,1.3523,1.3545,1.3553,1.3574,1.3585,1.3594,1.361,1.3622,1.364,1.3648,1.3667,1.3678,1.3694,1.3704,1.3696,1.3735,1.3726,1.3741,1.3741,1.3748,1.3747,1.3785,1.3755,1.3755,1.3755,1.3755,0,1.3519,1.3537,1.3551,1.3565,1.3586,1.3595,1.3616,1.3626,1.3641,1.3658,1.3662,1.3678,1.3689,1.3708,1.3716,1.3741,1.3746,1.3752,1.3753,1.3751,1.375,1.3758,1.3756,1.3756,1.3756,1.3756,1.3756,0,1.3536,1.3546,1.3571,1.3589,1.3595,1.361,1.3627,1.3641,1.365,1.3672,1.3677,1.3692,1.3714,1.3726,1.3753,1.3759,1.3787,1.3788,1.3781,1.3782,1.3796,1.3795,1.384,1.3847,1.3813,1.3813,1.3813,0,1.355,1.3565,1.3586,1.3597,1.3607,1.3625,1.3637,1.3647,1.366,1.3682,1.3694,1.3716,1.3734,1.3769,1.3783,1.3805,1.3807,1.3821,1.381,1.3808,1.3808,1.3806,1.3809,1.3823,1.3823,1.3823,1.3823,0,1.3576,1.358,1.3597,1.3617,1.3632,1.3648,1.3664,1.3673,1.3686,1.3701,1.3723,1.3737,1.3766,1.3788,1.3812,1.3823,1.3826,1.3827,1.3832,1.3829,1.3825,1.3828,1.3786,1.3826,1.3825,1.3825,1.3825,1.3825,1.3592,1.3606,1.3623,1.3643,1.3656,1.3671,1.3686,1.3698,1.3716,1.374,1.3745,1.3769,1.3789,1.382,1.3833,1.3853,1.385,1.3856,1.3858,1.386,1.3861,1.3822,1.3857,1.3857,1.3857,1.3857,1.3857,0,1.3618,1.3629,1.3648,1.367,1.3686,1.3687,1.3706,1.372,1.374,1.3758,1.3776,1.3803,1.3826,1.3842,1.3866,1.3879,1.3881,1.3885,1.3884,1.3887,1.3861,1.3855,1.3883,1.3883,1.3883,1.3883,1.3883,1.3883,1.3633,1.3656,1.3664,1.3695,1.3707,1.373,1.3741,1.3756,1.377,1.3799,1.3818,1.3829,1.3847,1.3872,1.3894,1.3898,1.3907,1.3911,1.3916,1.3891,1.3888,1.3886,1.388,1.3913,1.3913,1.394,1.394,1.394]},{"header":{"parameterUnit":"m.s-1","parameterCategory":1,"la1":30.2991,"la2":30.254,"lo1":-89.0895,"lo2":-89.0444,"dy":0.0017,"dx":0.0017,"nx":28,"ny":28,"refTime":"2026-01-30T03:00:00:Z","depth":0,"parameterNumber":3,"parameterNumberName":"V-component_of_WINDS"},"data":[0,0,0,0,0,0,0,0,0,0,0,0,0,0,0,0,0,0,0,0,0,0,0,0,0,0,0,0,0,0,0,0,0,0,0,0,0,0,0,0,0,0,0,0,0,0,0,0,0,0,0,0,0,0,0,0,0,0,-6.8455,-6.8457,0,-6.8652,-6.8655,-6.8657,-6.861,-6.8607,-6.8603,-6.8599,-6.8798,-6.8807,-6.8816,0,0,0,0,0,0,0,0,0,0,0,0,0,-6.8035,-6.8043,-6.8455,-6.8457,-6.846,-6.8652,-6.8655,-6.8657,-6.8611,-6.8606,-6.8602,-6.8597,-6.8795,-6.8806,-6.8816,0,0,0,0,0,0,0,0,0,0,0,0,0,-6.8223,-6.8045,-6.8454,-6.846,-6.8462,-6.8651,-6.8655,-6.8658,-6.8612,-6.8606,-6.8601,-6.8595,-6.8792,-6.8805,-6.8818,-6.9013,0,0,-6.8858,-6.8864,0,0,0,0,0,0,0,0,-6.8213,-6.8239,-6.8456,-6.846,-6.8463,-6.8601,-6.858,-6.8777,-6.8613,-6.8555,-6.8599,-6.8593,-6.8737,-6.8754,-6.8804,-6.9022,-6.9031,-6.8859,-6.8867,-6.8873,-6.8877,0,0,0,0,0,0,0,-6.82,-6.823,-6.8533,-6.846,-6.8464,-6.8452,-6.8472,-6.8617,-6.8675,-6.856,-6.8557,-6.8581,-6.8738,-6.8791,-6.8808,-6.9033,-6.8859,-6.8871,-6.8879,-6.8884,-6.9423,-6.9429,0,0,0,0,0,0,-6.8184,-6.8219,-6.8526,-6.8539,-6.8321,-6.8464,-6.8487,-6.8562,-6.8674,-6.8685,-6.8586,-6.8578,-6.8771,-6.8793,-6.8815,-6.9051,-6.8873,-6.8885,-6.8893,-6.9416,-6.9424,-6.9431,0,0,0,0,0,0,-6.8175,-6.8212,-6.8518,-6.8378,-6.8416,-6.8477,-6.8562,-6.8569,-6.8623,-6.8693,-6.8703,-6.863,-6.8768,-6.8796,-6.8964,-6.9058,-6.8891,-6.8903,-6.9409,-6.9419,-6.9427,-6.9526,0,0,0,0,0,0,-6.8164,-6.8209,-6.8284,-6.838,-6.8424,-6.8666,-6.8568,-6.8577,-6.8646,-6.8638,-6.8737,-6.8748,-6.8765,-6.8945,-6.8978,-6.9073,-6.8914,-6.9401,-6.9413,-6.9424,-6.9514,-6.9537,-6.9557,0,0,0,0,0,-6.8149,-6.8303,-6.8289,-6.8326,-6.852,-6.8671,-6.8696,-6.8714,-6.8654,-6.873,-6.8775,-6.8745,-6.9042,-6.8962,-6.8999,-6.91,-6.9395,-6.941,-6.9423,-6.9505,-6.9533,-6.9557,0,0,0,0,0,0,-6.8215,-6.8316,-6.8301,-6.8491,-6.8573,-6.8663,-6.8759,-6.8743,-6.8843,-6.8831,-6.8847,-6.887,-6.9042,-6.9087,-6.8997,-6.9294,-6.921,-6.9232,-6.9259,-6.9286,-6.9307,-6.9293,-6.8925,0,0,0,0,0,-6.8253,-6.8368,-6.8449,-6.8609,-6.8651,-6.8699,-6.8765,-6.8772,-6.8857,-6.8891,-6.8949,-6.9032,-6.9144,-6.9217,-6.9324,-6.952,-6.9541,-6.9607,-6.9629,-6.9646,-6.9665,-6.9773,-6.9804,-6.9478,-6.9478,-6.9477,0,0,-6.833,-6.8399,-6.8471,-6.8625,-6.8689,-6.8808,-6.8728,-6.8857,-6.8945,-6.891,-6.9074,-6.9119,-6.9212,-6.9396,-6.9479,-6.9439,-6.976,-6.9664,-6.9677,-6.9688,-6.9791,-6.9822,-6.9849,-6.9488,-6.9486,-6.9484,0,0,-6.8532,-6.8596,-6.8737,-6.8803,-6.8902,-6.8933,-6.8967,-6.906,-6.9089,-6.9253,-6.923,-6.9334,-6.9527,-6.9595,-6.9655,-6.9884,-6.986,-6.9918,-7.003,-7.0135,-7.016,-7.0183,-7.0266,-7.0295,-6.9937,-6.9937,-6.9937,0,-6.8616,-6.8795,-6.8811,-6.8943,-6.9012,-6.8987,-6.913,-6.9193,-6.9321,-6.9369,-6.9322,-6.9564,-6.9625,-6.9824,-6.988,-6.9929,-6.9968,-6.9907,-7.0156,-7.0179,-7.02,-7.0279,-7.031,-6.9943,-6.9943,-6.9942,-6.9941,0,-6.8893,-6.9018,-6.9119,-6.9246,-6.9326,-6.9462,-6.9499,-6.9578,-6.9577,-6.9613,-6.978,-6.9853,-6.9974,-7.0022,-7.0022,-7.0222,-7.0194,-7.0151,-7.0066,-7.0238,-7.0312,-7.0342,-6.9953,-6.995,-6.9948,-6.9947,0,0,-6.9143,-6.9277,-6.9315,-6.9372,-6.948,-6.9576,-6.9711,-6.9832,-6.9899,-6.9989,-7.0103,-7.0267,-7.0228,-7.0296,-7.0304,-7.0396,-7.0574,-7.0342,-7.0344,-7.0383,-7.0799,-7.0832,-7.0866,-7.0558,-7.0564,-7.0569,-7.0792,0,-6.9355,-6.9596,-6.9615,-6.9831,-6.9946,-6.9925,-7.0043,-7.0121,-7.0158,-7.026,-7.03,-7.0417,-7.0357,-7.0398,-7.0488,-7.0533,-7.0658,-7.0517,-7.0665,-7.067,-7.0643,-7.0905,-7.094,-7.1147,-7.0821,-7.0826,-7.0829,0,-6.9636,-6.9735,-6.9964,-7.0056,-7.0105,-7.0211,-7.0324,-7.0422,-7.051,-7.0531,-7.0607,-7.0603,-7.0741,-7.0651,-7.0842,-7.0746,-7.0807,-7.0839,-7.0847,-7.0862,-7.0761,-7.0928,-7.1213,-7.1244,-7.0875,-7.0872,-7.0868,0,-6.9797,-6.9987,-7.0149,-7.0199,-7.031,-7.0385,-7.0435,-7.0518,-7.059,-7.0687,-7.0734,-7.0846,-7.0907,-7.0994,-7.1019,-7.0951,-7.121,-7.1122,-7.1231,-7.123,-7.1287,-7.1283,-7.1586,-7.1325,-7.1324,-7.1324,-7.1323,0,-7.0033,-7.0173,-7.0223,-7.0323,-7.0479,-7.0499,-7.0654,-7.0699,-7.0773,-7.0881,-7.0868,-7.0969,-7.0996,-7.1101,-7.1122,-7.1277,-7.1305,-7.1325,-7.1329,-7.1327,-7.1325,-7.1368,-7.1355,-7.1332,-7.133,-7.1329,-7.1327,0,-7.0239,-7.0278,-7.0453,-7.0545,-7.0571,-7.0683,-7.0761,-7.0857,-7.0891,-7.1027,-7.106,-7.1115,-7.1239,-7.1272,-7.142,-7.1434,-7.1618,-7.1607,-7.1588,-7.1589,-7.1696,-7.1686,-7.2039,-7.2086,-7.1792,-7.1795,-7.1797,0,-7.0388,-7.0496,-7.06,-7.0672,-7.0725,-7.0841,-7.0914,-7.0938,-7.1014,-7.1124,-7.1206,-7.1329,-7.1428,-7.1627,-7.1679,-7.1792,-7.1785,-7.1901,-7.1802,-7.1797,-7.1788,-7.1782,-7.1793,-7.192,-7.1923,-7.1925,-7.1927,0,-7.0649,-7.0663,-7.0769,-7.0884,-7.0972,-7.1063,-7.115,-7.1209,-7.1245,-7.1331,-7.1459,-7.1536,-7.1688,-7.181,-7.1924,-7.1974,-7.1958,-7.1958,-7.199,-7.1989,-7.1974,-7.1985,-7.1641,-7.195,-7.1948,-7.1946,-7.1945,-7.1944,-7.0832,-7.0927,-7.1016,-7.1135,-7.1204,-7.1285,-7.138,-7.1427,-7.1534,-7.1661,-7.1668,-7.1806,-7.1892,-7.2044,-7.2101,-7.2209,-7.2174,-7.2219,-7.2231,-7.2242,-7.2252,-7.1956,-7.2229,-7.2228,-7.2228,-7.2227,-7.2227,0,-7.1092,-7.1148,-7.1258,-7.1381,-7.1476,-7.1452,-7.1548,-7.1628,-7.175,-7.1832,-7.1931,-7.2077,-7.2195,-7.2257,-7.2374,-7.2449,-7.2444,-7.2479,-7.2474,-7.2486,-7.2275,-7.2237,-7.2481,-7.2481,-7.2481,-7.2481,-7.2481,-7.2481,-7.1239,-7.14,-7.1425,-7.1619,-7.1674,-7.181,-7.1867,-7.1942,-7.2008,-7.2173,-7.2272,-7.2311,-7.2386,-7.2508,-7.2615,-7.263,-7.2675,-7.2714,-7.2725,-7.2527,-7.2501,-7.2476,-7.2441,-7.2723,-7.2724,-7.2927,-7.2929,-7.293]}]]